Home > Weather > Paradise > Past weeks

Flag for USA Past Weather in Paradise, California, USA — Yesterday and Last 2 Weeks

Now
99 °F

Sunny.


Feels Like: 96 °F
Forecast: 73 / 99 °F
Wind: 9 mph from South

Location: Chico Municipal

Current Time: Jul 26, 2016 at 2:54:27 PM

Latest Report: Jul 26, 2016 at 1:48 PM


Visibility: 10 mi

Pressure: 29.86 "Hg (28.18 "Hg at 527m altitude)

Humidity: 22%

Dew Point: 54 °F

Location of ParadiseLocation

Past Weather in Paradise — Graph

°F

Paradise Temperature Yesterday

Maximum temperature yesterday: 99 °F (at 2:51 PM)
Minimum temperature yesterday: 72 °F (at 3:35 AM)
Average temperature yesterday: 85 °F

High & Low Weather Summary for the Past Weeks

 TemperatureHumidityPressure
High102 °F (Jul 23, 3:48 PM)68% (Jul 19, 3:15 AM)30.11 "Hg (Jul 19, 3:15 AM)
Low63 °F (Jul 13, 5:15 AM)6% (Jul 11, 6:35 PM)29.75 "Hg (Jul 16, 6:35 PM)
Average80 °F32%29.90 "Hg
* Reported Jul 11 12:56 PM — Jul 26 12:49 PM, Paradise, Weather by CustomWeather, © 2016

Note: Actual official high and low records may vary slightly from our data, if they occured in-between our weather recording intervals... More about our weather records

Advertising

Paradise Weather History for the Previous 24 Hours

Scroll right to see more
 ConditionsComfort  
Time TempWeatherWind HumidityBarometerVisibility
12:49 PM
Tue, Jul 26
95 °FSunny.9 mph25%29.88 "Hg10 mi
11:51 AM91 °FSunny.6 mph28%29.90 "Hg10 mi
10:50 AM88 °FSunny.8 mph33%29.91 "Hg10 mi
9:45 AM86 °FSunny.9 mph31%29.91 "Hg15 mi
8:45 AM81 °FSunny.No wind32%29.92 "Hg15 mi
7:45 AM73 °FSunny.No wind47%29.92 "Hg15 mi
6:48 AM72 °FClear.No wind41%29.90 "Hg15 mi
5:35 AM72 °FPassing clouds.No wind44%29.89 "Hg10 mi
5:15 AM68 °FPassing clouds.No wind53%29.90 "Hg10 mi
4:55 AM70 °FPassing clouds.No wind50%29.90 "Hg10 mi
4:35 AM72 °FPassing clouds.No wind44%29.89 "Hg10 mi
4:15 AM73 °FPassing clouds.No wind41%29.89 "Hg10 mi
3:55 AM73 °FPassing clouds.No wind41%29.89 "Hg10 mi
3:35 AM72 °FPassing clouds.No wind47%29.88 "Hg10 mi
3:15 AM73 °FPassing clouds.No wind41%29.88 "Hg10 mi
2:55 AM72 °FPassing clouds.No wind44%29.88 "Hg10 mi
2:35 AM73 °FPassing clouds.No wind41%29.88 "Hg10 mi
2:15 AM75 °FOvercast.No wind36%29.88 "Hg10 mi
1:55 AM75 °FOvercast.No wind36%29.87 "Hg10 mi
1:35 AM77 °FOvercast.5 mph34%29.87 "Hg10 mi
1:15 AM77 °FOvercast.No wind34%29.88 "Hg10 mi
12:55 AM82 °FOvercast.No wind26%29.87 "Hg10 mi
12:35 AM82 °FOvercast.No wind26%29.87 "Hg10 mi
11:55 PM
Mon, Jul 25
82 °FOvercast.No wind26%29.87 "Hg10 mi
11:35 PM82 °FMostly cloudy.No wind26%29.87 "Hg10 mi
11:15 PM84 °FMostly cloudy.No wind25%29.87 "Hg10 mi
10:55 PM84 °FMostly cloudy.No wind25%29.87 "Hg10 mi
10:35 PM84 °FMostly cloudy.No wind27%29.87 "Hg10 mi
10:15 PM86 °FOvercast.5 mph25%29.87 "Hg10 mi
9:55 PM86 °FMostly cloudy.No wind27%29.87 "Hg10 mi
9:35 PM88 °FOvercast.No wind24%29.86 "Hg10 mi
9:15 PM90 °FPartly sunny.No wind24%29.86 "Hg10 mi
8:55 PM91 °FPassing clouds.No wind30%29.85 "Hg10 mi
8:35 PM91 °FSunny.No wind30%29.84 "Hg10 mi
8:15 PM93 °FSunny.No wind28%29.84 "Hg10 mi
7:55 PM95 °FSunny.No wind20%29.84 "Hg10 mi
7:35 PM95 °FSunny.No wind22%29.84 "Hg10 mi
7:15 PM97 °FSunny.6 mph18%29.83 "Hg10 mi
6:55 PM97 °FSunny.6 mph17%29.84 "Hg10 mi
6:35 PM99 °FSunny.No wind16%29.84 "Hg10 mi
6:15 PM99 °FSunny.8 mph16%29.84 "Hg10 mi
5:55 PM99 °FSunny.9 mph18%29.84 "Hg10 mi
4:50 PM99 °FPartly sunny.9 mph17%29.85 "Hg25 mi
3:47 PM99 °FPartly sunny.7 mph22%29.87 "Hg25 mi
2:51 PM99 °FScattered clouds.6 mph17%29.88 "Hg25 mi
Weather by CustomWeather, © 2016

See weather overviewHow to use our weather pages